When you browse on this site, cookies collect data to enhance your experience and personalize the content and advertising you see.
Visit our Privacy Policy to learn more. By continuing to use the site, you agree to this use of cookies and data.
  • în România
  • Lista ţărilor
  • Pe 7 zile
  • Temperatura apei
  • Hartă satelitară
  • Meteo pe hartă
  • Widget-uri
  • user-avatar
    Intrare

    Meteo pe oră la Simanovo

    Astăzi, 23 Iulie, Marţi

    Timp Temperatura Precipitaţii Vânt Presiune Umiditate
    00:00 +13°C° 0 mm 0 m/s 743 mmHg 88%
    01:00 +12°C° 0 mm 0 m/s 742 mmHg 88%
    02:00 +13°C° 0 mm 0 m/s 742 mmHg 91%
    03:00 +13°C° 0 mm 0 m/s 742 mmHg 90%
    04:00 +14°C° 0 mm 0 m/s 742 mmHg 88%
    05:00 +15°C° 0 mm 0 m/s 742 mmHg 87%
    06:00 +17°C° 0 mm 0 m/s 742 mmHg 79%
    07:00 +18°C° 0 mm 0 m/s 742 mmHg 72%
    08:00 +20°C° 0 mm 0 m/s 742 mmHg 65%
    09:00 +21°C° 0 mm 0 m/s 742 mmHg 59%
    10:00 +24°C° 0 mm 1 m/s 742 mmHg 54%
    11:00 +25°C° 0 mm 1 m/s 742 mmHg 49%
    12:00 +25°C° 0 mm 1 m/s 742 mmHg 50%
    13:00 +25°C° 0 mm 1 m/s 741 mmHg 51%
    14:00 +25°C° 0 mm 1 m/s 741 mmHg 52%
    15:00 +24°C° 0 mm 1 m/s 741 mmHg 56%
    16:00 +24°C° 0 mm 1 m/s 741 mmHg 59%
    17:00 +24°C° 0 mm 1 m/s 741 mmHg 62%
    18:00 +22°C° 0.1 mm 1 m/s 741 mmHg 69%
    19:00 +20°C° 0.1 mm 1 m/s 741 mmHg 76%
    20:00 +18°C° 0.1 mm 1 m/s 741 mmHg 82%
    21:00 +18°C° 0 mm 1 m/s 741 mmHg 83%
    22:00 +16°C° 0 mm 1 m/s 741 mmHg 85%
    23:00 +16°C° 0 mm 1 m/s 741 mmHg 86%

    Mâine, 24 Iulie, Miercuri

    Timp Temperatura Precipitaţii Vânt Presiune Umiditate
    00:00 +15°C° 0.1 mm 1 m/s 741 mmHg 88%
    01:00 +15°C° 0.1 mm 1 m/s 741 mmHg 89%
    02:00 +15°C° 0.1 mm 1 m/s 741 mmHg 91%
    03:00 +15°C° 0.7 mm 1 m/s 741 mmHg 91%
    04:00 +15°C° 0.7 mm 1 m/s 741 mmHg 92%
    05:00 +15°C° 0.7 mm 1 m/s 741 mmHg 93%
    06:00 +16°C° 0.8 mm 2 m/s 741 mmHg 92%
    07:00 +16°C° 0.8 mm 2 m/s 741 mmHg 92%
    08:00 +17°C° 0.8 mm 2 m/s 741 mmHg 91%
    09:00 +17°C° 0.3 mm 3 m/s 741 mmHg 91%
    10:00 +17°C° 0.3 mm 3 m/s 741 mmHg 90%
    11:00 +17°C° 0.3 mm 3 m/s 741 mmHg 90%
    12:00 +18°C° 0 mm 3 m/s 741 mmHg 88%
    13:00 +18°C° 0 mm 3 m/s 741 mmHg 87%
    14:00 +18°C° 0 mm 3 m/s 741 mmHg 86%
    15:00 +18°C° 0.1 mm 3 m/s 742 mmHg 85%
    16:00 +18°C° 0.1 mm 3 m/s 742 mmHg 85%
    17:00 +18°C° 0.1 mm 3 m/s 742 mmHg 85%
    18:00 +18°C° 0.2 mm 2 m/s 742 mmHg 89%
    19:00 +17°C° 0.2 mm 2 m/s 741 mmHg 92%
    20:00 +16°C° 0.2 mm 2 m/s 741 mmHg 96%
    21:00 +16°C° 0.4 mm 2 m/s 741 mmHg 97%
    22:00 +16°C° 0.4 mm 1 m/s 742 mmHg 98%
    23:00 +15°C° 0.4 mm 1 m/s 742 mmHg 98%

    Poimâine, 25 Iulie, Joi

    Timp Temperatura Precipitaţii Vânt Presiune Umiditate
    00:00 +15°C° 0.5 mm 1 m/s 742 mmHg 98%
    01:00 +15°C° 0.5 mm 1 m/s 742 mmHg 98%
    02:00 +15°C° 0.5 mm 1 m/s 741 mmHg 98%
    03:00 +15°C° 2.6 mm 2 m/s 742 mmHg 98%
    04:00 +15°C° 2.6 mm 2 m/s 742 mmHg 98%
    05:00 +15°C° 2.6 mm 2 m/s 742 mmHg 99%
    06:00 +16°C° 1.1 mm 3 m/s 742 mmHg 98%
    07:00 +17°C° 1.1 mm 3 m/s 742 mmHg 97%
    08:00 +17°C° 1.1 mm 3 m/s 743 mmHg 97%
    09:00 +18°C° 0.3 mm 4 m/s 743 mmHg 95%
    10:00 +19°C° 0.3 mm 4 m/s 743 mmHg 93%
    11:00 +20°C° 0.3 mm 4 m/s 744 mmHg 90%
    12:00 +20°C° 0.5 mm 4 m/s 744 mmHg 90%
    13:00 +20°C° 0.5 mm 5 m/s 744 mmHg 90%
    14:00 +20°C° 0.5 mm 5 m/s 744 mmHg 89%
    15:00 +20°C° 0.1 mm 4 m/s 744 mmHg 87%
    16:00 +20°C° 0.1 mm 4 m/s 745 mmHg 84%
    17:00 +20°C° 0.1 mm 3 m/s 745 mmHg 82%
    18:00 +19°C° 0 mm 3 m/s 745 mmHg 85%
    19:00 +18°C° 0 mm 3 m/s 745 mmHg 88%
    20:00 +17°C° 0 mm 3 m/s 746 mmHg 91%
    21:00 +17°C° 0 mm 2 m/s 746 mmHg 92%
    22:00 +16°C° 0 mm 2 m/s 746 mmHg 93%
    23:00 +16°C° 0 mm 2 m/s 746 mmHg 93%

    26 Iulie, Vineri

    Timp Temperatura Precipitaţii Vânt Presiune Umiditate
    00:00 +16°C° 0 mm 2 m/s 747 mmHg 92%
    01:00 +16°C° 0 mm 2 m/s 747 mmHg 91%
    02:00 +16°C° 0 mm 2 m/s 747 mmHg 90%
    03:00 +16°C° 0 mm 3 m/s 747 mmHg 91%
    04:00 +17°C° 0 mm 3 m/s 747 mmHg 92%
    05:00 +17°C° 0 mm 3 m/s 747 mmHg 93%
    06:00 +19°C° 0 mm 3 m/s 747 mmHg 88%
    07:00 +20°C° 0 mm 3 m/s 747 mmHg 83%
    08:00 +22°C° 0 mm 3 m/s 747 mmHg 78%
    09:00 +24°C° 0 mm 3 m/s 747 mmHg 73%
    10:00 +25°C° 0 mm 4 m/s 747 mmHg 69%
    11:00 +26°C° 0 mm 4 m/s 747 mmHg 64%
    12:00 +26°C° 0 mm 4 m/s 747 mmHg 62%
    13:00 +27°C° 0 mm 4 m/s 747 mmHg 60%
    14:00 +27°C° 0 mm 4 m/s 747 mmHg 58%
    15:00 +27°C° 0 mm 4 m/s 747 mmHg 61%
    16:00 +27°C° 0 mm 3 m/s 747 mmHg 64%
    17:00 +26°C° 0 mm 3 m/s 746 mmHg 67%
    18:00 +25°C° 0 mm 3 m/s 746 mmHg 72%
    19:00 +22°C° 0 mm 3 m/s 746 mmHg 78%
    20:00 +20°C° 0 mm 2 m/s 746 mmHg 83%
    21:00 +19°C° 0 mm 2 m/s 746 mmHg 85%
    22:00 +19°C° 0 mm 2 m/s 746 mmHg 86%
    23:00 +18°C° 0 mm 2 m/s 746 mmHg 88%

    27 Iulie, Sâmbătă

    Timp Temperatura Precipitaţii Vânt Presiune Umiditate
    00:00 +18°C° 0 mm 2 m/s 746 mmHg 89%
    01:00 +17°C° 0 mm 2 m/s 746 mmHg 90%
    02:00 +17°C° 0 mm 2 m/s 745 mmHg 91%
    03:00 +17°C° 0 mm 2 m/s 745 mmHg 89%
    04:00 +18°C° 0 mm 2 m/s 745 mmHg 87%
    05:00 +18°C° 0 mm 2 m/s 745 mmHg 85%
    06:00 +19°C° 0 mm 2 m/s 745 mmHg 82%
    07:00 +21°C° 0 mm 2 m/s 745 mmHg 79%
    08:00 +23°C° 0 mm 2 m/s 745 mmHg 75%
    09:00 +24°C° 0 mm 2 m/s 745 mmHg 70%
    10:00 +26°C° 0 mm 3 m/s 744 mmHg 65%
    11:00 +27°C° 0 mm 3 m/s 744 mmHg 59%
    12:00 +27°C° 0.1 mm 3 m/s 744 mmHg 58%
    13:00 +28°C° 0.1 mm 3 m/s 743 mmHg 57%
    14:00 +28°C° 0.1 mm 3 m/s 743 mmHg 57%
    15:00 +28°C° 0.1 mm 3 m/s 742 mmHg 61%
    16:00 +27°C° 0.1 mm 3 m/s 742 mmHg 65%
    17:00 +27°C° 0.1 mm 2 m/s 741 mmHg 69%
    18:00 +25°C° 0.1 mm 3 m/s 741 mmHg 76%
    19:00 +22°C° 0.1 mm 4 m/s 741 mmHg 83%
    20:00 +19°C° 0.1 mm 4 m/s 741 mmHg 90%
    21:00 +18°C° 0 mm 4 m/s 741 mmHg 88%
    22:00 +17°C° 0 mm 4 m/s 741 mmHg 86%
    23:00 +15°C° 0 mm 4 m/s 741 mmHg 84%

    28 Iulie, Duminică

    Timp Temperatura Precipitaţii Vânt Presiune Umiditate
    00:00 +14°C° 0 mm 4 m/s 741 mmHg 84%
    01:00 +13°C° 0 mm 4 m/s 742 mmHg 83%
    02:00 +12°C° 0 mm 4 m/s 742 mmHg 83%
    03:00 +11°C° 0 mm 4 m/s 742 mmHg 81%
    04:00 +10°C° 0 mm 4 m/s 742 mmHg 79%
    05:00 +9°C° 0 mm 5 m/s 743 mmHg 77%
    06:00 +9°C° 0 mm 5 m/s 743 mmHg 72%
    07:00 +9°C° 0 mm 5 m/s 743 mmHg 68%
    08:00 +9°C° 0 mm 5 m/s 743 mmHg 63%
    09:00 +10°C° 0 mm 5 m/s 743 mmHg 62%
    10:00 +10°C° 0 mm 5 m/s 743 mmHg 62%
    11:00 +10°C° 0 mm 5 m/s 743 mmHg 61%
    12:00 +10°C° 0 mm 5 m/s 743 mmHg 60%
    13:00 +12°C° 0 mm 5 m/s 743 mmHg 59%
    14:00 +12°C° 0 mm 5 m/s 743 mmHg 58%
    15:00 +11°C° 0 mm 4 m/s 743 mmHg 60%
    16:00 +11°C° 0 mm 4 m/s 743 mmHg 61%
    17:00 +11°C° 0 mm 4 m/s 743 mmHg 63%
    18:00 +10°C° 0 mm 4 m/s 743 mmHg 65%
    19:00 +9°C° 0 mm 3 m/s 743 mmHg 66%
    20:00 +9°C° 0 mm 3 m/s 743 mmHg 68%
    21:00 +8°C° 0 mm 3 m/s 743 mmHg 68%
    22:00 +8°C° 0 mm 3 m/s 742 mmHg 67%
    23:00 +8°C° 0 mm 3 m/s 742 mmHg 67%
    Arată mai mult